Regional Weather Roundup
Issued by NWS Charleston, SC

Home | Current Version | Previous Version | Text Only | Print | Product List | Glossary On
Versions: 1 2 3 4 5 6 7 8 9 10 11 12 13 14 15 16 17 18 19 20 21 22 23 24 25 26 27 28 29 30 31 32 33 34 35 36 37 38 39 40 41 42 43 44 45 46 47 48 49 50
000
ASUS42 KCHS 301628
RWRCHS

REGIONAL WEATHER ROUNDUP
NATIONAL WEATHER SERVICE CHARLESTON SC
1200 PM EDT SAT APR 30 2016

NOTE: "FAIR" INDICATES FEW OR NO CLOUDS BELOW 12,000 FEET WITH NO
SIGNIFICANT WEATHER AND/OR OBSTRUCTIONS TO VISIBILITY.

NOT ALL STATIONS ARE QUALITY CONTROLLED. USE DATA WITH CAUTION...
ESPECIALLY DEWPOINT OBSERVATIONS.

SCZ027-030-031-034>040-042>050-301700-
...SOUTHEAST SOUTH CAROLINA...

CITY           SKY/WX    TMP DP  RH WIND       PRES   REMARKS
N CHARLESTON   MOSUNNY   82  68  62 SE12      30.06R
WATERFRONT PRK   N/A     76  73  90 E9        30.05R
MOUNT PLEASANT PTSUNNY   77  72  83 E8        30.07S
JOHNS ISLAND   CLOUDY    79  73  83 E8        30.06S
PINOPOLIS        N/A     82  70  65 SE6       29.99R
MONCKS CORNER  PTSUNNY   79  63  57 SE8       30.05S
SUMMERVILLE    PTSUNNY   82  68  61 SE5       30.06S
BEAUFORT MCAS  MOSUNNY   83  70  64 VRB7      30.04S
BEAUFORT ARPT  PTSUNNY   81  70  69 S10       30.04S
HILTON HEAD IS PTSUNNY   84  72  65 S8        30.06R
WALTERBORO     PTSUNNY   84  68  58 SE9       30.04F
ALLENDALE      FAIR      82  64  54 S8        30.02S

...SOUTHERN MIDLANDS AND PEE DEE...

CITY           SKY/WX    TMP DP  RH WIND       PRES   REMARKS
GEORGETOWN     PTSUNNY   77  68  73 E10       30.09F
KINGSTREE      CLOUDY    79  64  61 SE9       30.05F
ORANGEBURG     MOSUNNY   82  65  56 S8G18     30.03F
BARNWELL       FAIR      84  66  54 S5        30.03F
AIKEN          FAIR      82  61  47 SE8       30.07S
MANNING        NOT AVBL
COLUMBIA       PTSUNNY   80  64  58 CALM      30.04S
SUMTER         MOSUNNY   80  66  62 VRB2      30.03S
FLORENCE       CLOUDY    75  65  70 SE12      30.08S
MYRTLE BEACH   CLOUDY    72  61  68 E15       30.12R
N MYRTLE BEACH PTSUNNY   72  63  73 E16G24    30.10S

$$

GAZ063-065-086>088-099>101-113>116-118-119-134>141-150-301700-
...SOUTHEAST GEORGIA...

CITY           SKY/WX    TMP DP  RH WIND       PRES   REMARKS
SAVANNAH ARPT  CLOUDY    83  64  52 SE12      30.03S
HUNTER AAF     MOSUNNY   82  70  68 SE9       30.01S
FORT STEWART   CLOUDY    85  66  54 E13G18    29.99F
STATESBORO     PTSUNNY   88  69  53 S10       30.02S HX  92
SYLVANIA       MOSUNNY   85  69  57 S5        30.03S
CLAXTON        FAIR      86  67  52 E6        30.01S

...CSRA...CENTRAL AND FAR SOUTHEAST GEORGIA...

CITY           SKY/WX    TMP DP  RH WIND       PRES   REMARKS
THOMSON        MOSUNNY   86  72  62 SE8       30.06S HX  92
AUGUSTA-BUSH   MOSUNNY   82  69  64 SE7       30.02S
AUGUSTA-DANIEL CLOUDY    82  67  60 VRB6      30.04S
SWAINSBORO     FAIR      86  61  42 S8G16     30.02S
VIDALIA        CLOUDY    86  63  45 E10       30.01F
EASTMAN        FAIR      88  68  51 S12       30.02S HX  91
HAZLEHURST     FAIR      87  62  42 SE10      29.99S
ALMA           MOSUNNY   86  64  47 SE9       29.99S
WAYCROSS       MOSUNNY   86  65  50 S12       29.99F
JESUP          FAIR      90  61  37 SE13G20   30.00S
BAXLEY         FAIR      88  61  40 S12       30.00S
BRUNSWICK      SUNNY     86  68  54 S10       30.03S
SAINT SIMONS   SUNNY     79  73  82 SE10      30.02R

$$

SCZ027-028-034-036>038-045-046-048>050-GAZ119-141-301700-
...LAKE AND SUPPLEMENTAL COASTAL OBSERVATIONS...

STATION/POSITION TIME  TEMP    WIND        PRES    WAVE   SWELL
                       AIR SEA DIR/SP/G            HT/PER HT/PER/DIR
                 (UTC) (F)     (DEG/KT/KT) (MB)    (FT/S) (FT/S/D)
WINYAH BAY       1545   71      80/ 12     1018.0R
LAKE MURRAY      1600   76      80/  2/  3 1016.9S
ACE BASIN NERRS  1500   79     150/  2     1018.0R
FORT PULASKI     1600   78 72  150/  6/  9 1017.4F
SAPELO ISLAND    1600   85     120/  8     1017.0S

$$

ANZ835-935-AMZ111-154-330-350-352-354-370-450-454-472-301700-
...C-MAN AND BUOY OBSERVATIONS...

STATION/POSITION TIME  TEMP    WIND        PRES    WAVE   SWELL
                       AIR SEA DIR/SP/G            HT/PER HT/PER/DIR
                 (UTC) (F)     (DEG/KT/KT) (MB)    (FT/S) (FT/S/D)
BUOY 41004       1550   74 73   70/  6/  8 1017.7R   2/ 8   2/ 8
BUOY 41008       NOT AVBL
FOLLY BEACH CMAN 1600   74      80/  8/  9 1018.4R
CAPERS NEARSHORE 1608   72 71   80/ 10/ 12 1017.9R
FRIPP NEARSHORE  1608   74 73  130/  4/  6 1016.9F


STATION/POSITION TIME  TEMP    WIND        PRES    WAVE   SWELL
                       AIR SEA DIR/SP/G            HT/PER HT/PER/DIR
                 (UTC) (F)     (DEG/KT/KT) (MB)    (FT/S) (FT/S/D)
5E ST. MARYS GA  1521      73                N/A     2/11
FRYING PAN BUOY  1600   69 70   60/ 16/ 19 1019.0R
BUOY 41025       1550   60 74   30/ 14/ 17 1020.1F   5/10   5/ 50/10
CAPE LOOKOUT NC  1600   62      50/ 12/ 13 1020.0F
BUOY 41002       1550   70 71   60/ 14/ 16 1018.1F   4/10   3/ 50/10
BUOY 41010       1520   76 78  150/  6/  8 1017.2S
ST AUGUSTINE FL  1600   74 72  130/  8/  8 1017.1R


$$




USA.gov is the U.S. government's official web portal to all federal, state and local government web resources and services.